Satellite: NOAA-14
Catalog number: 23455
Epoch time: 10126.31608471
Element set: 46
Inclination: 098.8786 deg
RA of node: 207.3481 deg
Eccentricity: 0.0009463
Arg of perigee: 000.5513 deg
Mean anomaly: 359.5676 deg
Mean motion: 14.13785424 rev/day
Decay rate: 3.9e-07 rev/day^2
Epoch rev: 79158
Checksum: 314
Satellite: NOAA-15
Catalog number: 25338
Epoch time: 10126.30058276
Element set: 366
Inclination: 098.6175 deg
RA of node: 113.9832 deg
Eccentricity: 0.0010272
Arg of perigee: 191.5249 deg
Mean anomaly: 168.5711 deg
Mean motion: 14.24822344 rev/day
Decay rate: -2.4e-07 rev/day^2
Epoch rev: 62278
Checksum: 295
Satellite: RESURS
Catalog number: 25394
Epoch time: 10125.70308426
Element set: 495
Inclination: 098.3054 deg
RA of node: 146.0935 deg
Eccentricity: 0.0001546
Arg of perigee: 028.6981 deg
Mean anomaly: 331.4273 deg
Mean motion: 14.24198598 rev/day
Decay rate: -3.91e-06 rev/day^2
Epoch rev: 61430
Checksum: 298
Satellite: FENGYUN1
Catalog number: 25730
Epoch time: 10125.95874208
Element set: 35
Inclination: 098.7853 deg
RA of node: 092.0145 deg
Eccentricity: 0.0024963
Arg of perigee: 028.8422 deg
Mean anomaly: 331.4033 deg
Mean motion: 14.08224792 rev/day
Decay rate: 5.5e-07 rev/day^2
Epoch rev: 56574
Checksum: 292
Satellite: OKEAN-0
Catalog number: 25860
Epoch time: 10126.04635224
Element set: 984
Inclination: 097.8289 deg
RA of node: 100.1858 deg
Eccentricity: 0.0000835
Arg of perigee: 106.6958 deg
Mean anomaly: 253.4359 deg
Mean motion: 14.73636319 rev/day
Decay rate: 9.1e-07 rev/day^2
Epoch rev: 58069
Checksum: 318
Satellite: NOAA-16
Catalog number: 26536
Epoch time: 10126.29350599
Element set: 843
Inclination: 099.1724 deg
RA of node: 142.7732 deg
Eccentricity: 0.0011475
Arg of perigee: 095.2232 deg
Mean anomaly: 265.0216 deg
Mean motion: 14.12557453 rev/day
Decay rate: 6.9e-07 rev/day^2
Epoch rev: 49591
Checksum: 308
Satellite: NOAA-17
Catalog number: 27453
Epoch time: 10126.33383397
Element set: 847
Inclination: 098.4343 deg
RA of node: 178.4557 deg
Eccentricity: 0.0010728
Arg of perigee: 258.6912 deg
Mean anomaly: 101.3096 deg
Mean motion: 14.24154643 rev/day
Decay rate: 6.2e-07 rev/day^2
Epoch rev: 40874
Checksum: 312
Satellite: NOAA-18
Catalog number: 28654
Epoch time: 10126.33160093
Element set: 331
Inclination: 098.9478 deg
RA of node: 072.7223 deg
Eccentricity: 0.0014549
Arg of perigee: 168.1023 deg
Mean anomaly: 192.0499 deg
Mean motion: 14.11353948 rev/day
Decay rate: 4.05e-06 rev/day^2
Epoch rev: 25553
Checksum: 300
Satellite: NOAA-19
Catalog number: 33591
Epoch time: 10126.31053242
Element set: 529
Inclination: 098.7871 deg
RA of node: 069.3270 deg
Eccentricity: 0.0014936
Arg of perigee: 050.4556 deg
Mean anomaly: 309.7925 deg
Mean motion: 14.11050794 rev/day
Decay rate: 2.64e-06 rev/day^2
Epoch rev: 6400
Checksum: 291
/EX
SB KEPS @ AMSAT $ORB10126.M
Orbital Elements 10126.MISC
HR AMSAT ORBITAL ELEMENTS FOR MANNED AND MISCELLANEOUS SATELLITES
FROM WA5QGD FORT WORTH,TX May 6, 2010
Send Subscribe/unsubscribe to KEPS at http://www.amsat.org/mailman/listinfo/keps
BID: ORB10126.M
TO ALL RADIO AMATEURS BT
Satellite: HUBBLE
Catalog number: 20580
Epoch time: 10124.36202321
Element set: 560
Inclination: 028.4679 deg
RA of node: 165.9513 deg
Eccentricity: 0.0003653
Arg of perigee: 101.8537 deg
Mean anomaly: 258.2463 deg
Mean motion: 15.00964583 rev/day
Decay rate: 6.01e-06 rev/day^2
Epoch rev: 89816
Checksum: 280
Satellite: ISS
Catalog number: 25544
Epoch time: 10126.72202001
Element set: 103
Inclination: 051.6446 deg
RA of node: 083.3867 deg
Eccentricity: 0.0009651
Arg of perigee: 282.3663 deg
Mean anomaly: 141.3713 deg
Mean motion: 15.73727181 rev/day
Decay rate: 2.3462e-04 rev/day^2
Epoch rev: 65694
Checksum: 276
Satellite: CO-58
Catalog number: 28895
Epoch time: 10125.62441332
Element set: 575
Inclination: 098.0209 deg
RA of node: 011.4979 deg
Eccentricity: 0.0019001
Arg of perigee: 060.5741 deg
Mean anomaly: 299.7342 deg
Mean motion: 14.59885243 rev/day
Decay rate: 2.58e-06 rev/day^2
Epoch rev: 24077
Checksum: 319
Satellite: FALCON
Catalog number: 30776
Epoch time: 10126.78225945
Element set: 821
Inclination: 035.4343 deg
RA of node: 295.6670 deg
Eccentricity: 0.0002028
Arg of perigee: 233.1826 deg
Mean anomaly: 126.8709 deg
Mean motion: 15.03637892 rev/day
Decay rate: 7.91e-06 rev/day^2
Epoch rev: 17382
Checksum: 304
Satellite: MAST
Catalog number: 31126
Epoch time: 10125.61238337
Element set: 857
Inclination: 097.9410 deg
RA of node: 169.8167 deg
Eccentricity: 0.0094545
Arg of perigee: 359.2665 deg
Mean anomaly: 000.8380 deg
Mean motion: 14.53581314 rev/day
Decay rate: 5.7e-07 rev/day^2
Epoch rev: 16187
Checksum: 305
Satellite: CAPE1
Catalog number: 31130
Epoch time: 10125.82952505
Element set: 0879
Inclination: 097.9429 deg
RA of node: 167.5162 deg
Eccentricity: 0.0103088
Arg of perigee: 006.3724 deg
Mean anomaly: 353.8737 deg
Mean motion: 14.52171289 rev/day
Decay rate: 2.50e-06 rev/day^2
Epoch rev: 16151
Checksum: 294
Satellite: COMPASS
Catalog number: 32787
Epoch time: 10126.30421048
Element set: 664
Inclination: 097.8962 deg
RA of node: 191.6316 deg
Eccentricity: 0.0017021
Arg of perigee: 063.7209 deg
Mean anomaly: 296.5748 deg
Mean motion: 14.81853573 rev/day
Decay rate: 7.72e-06 rev/day^2
Epoch rev: 10929
Checksum: 313
Satellite: AAUSAT2
Catalog number: 32788
Epoch time: 10126.17625239
Element set: 657
Inclination: 097.8961 deg
RA of node: 191.6240 deg
Eccentricity: 0.0016631
Arg of perigee: 064.9482 deg
Mean anomaly: 295.3421 deg
Mean motion: 14.81994910 rev/day
Decay rate: 8.11e-06 rev/day^2
Epoch rev: 10928
Checksum: 317
Satellite: DO-64
Catalog number: 32789
Epoch time: 10125.91891584
Element set: 673
Inclination: 097.9030 deg
RA of node: 191.7962 deg
Eccentricity: 0.0016774
Arg of perigee: 065.0172 deg
Mean anomaly: 295.2760 deg
Mean motion: 14.82115909 rev/day
Decay rate: 1.145e-05 rev/day^2
Epoch rev: 10924
Checksum: 325
Satellite: CO-66
Catalog number: 32791
Epoch time: 10126.18503621
Element set: 655
Inclination: 097.8972 deg
RA of node: 191.5336 deg
Eccentricity: 0.0017370
Arg of perigee: 061.8040 deg
Mean anomaly: 298.4888 deg
Mean motion: 14.81641738 rev/day
Decay rate: 3.64e-06 rev/day^2
Epoch rev: 10923
Checksum: 321
Satellite: RS-30
Catalog number: 32953
Epoch time: 10126.75772503
Element set: 666
Inclination: 082.5022 deg
RA of node: 055.4373 deg
Eccentricity: 0.0017926
Arg of perigee: 189.2097 deg
Mean anomaly: 170.8657 deg
Mean motion: 12.43005032 rev/day
Decay rate: 1.0e-07 rev/day^2
Epoch rev: 8859
Checksum: 292
Satellite: TACSAT-3
Catalog number: 35001
Epoch time: 10126.39347033
Element set: 280
Inclination: 040.4527 deg
RA of node: 105.0961 deg
Eccentricity: 0.0020898
Arg of perigee: 048.5049 deg
Mean anomaly: 311.7555 deg
Mean motion: 15.41445208 rev/day
Decay rate: 9.430e-05 rev/day^2
Epoch rev: 5418
Checksum: 269
Satellite: PHARMSAT
Catalog number: 35002
Epoch time: 10125.32573709
Element set: 264
Inclination: 040.4682 deg
RA of node: 109.6656 deg
Eccentricity: 0.0024043
Arg of perigee: 044.9242 deg
Mean anomaly: 315.3521 deg
Mean motion: 15.41993201 rev/day
Decay rate: 9.211e-05 rev/day^2
Epoch rev: 5403
Checksum: 250
Satellite: HAWKSAT1
Catalog number: 35003
Epoch time: 10126.35050343
Element set: 282
Inclination: 040.4562 deg
RA of node: 099.4670 deg
Eccentricity: 0.0021563
Arg of perigee: 063.8014 deg
Mean anomaly: 296.5013 deg
Mean motion: 15.44755201 rev/day
Decay rate: 1.8237e-04 rev/day^2
Epoch rev: 5424
Checksum: 255
Satellite: CP6
Catalog number: 35004
Epoch time: 10126.23908027
Element set: 277
Inclination: 040.4603 deg
RA of node: 099.5017 deg
Eccentricity: 0.0020755
Arg of perigee: 065.0602 deg
Mean anomaly: 295.2332 deg
Mean motion: 15.45453668 rev/day
Decay rate: 2.1758e-04 rev/day^2
Epoch rev: 5422
Checksum: 277
Satellite: AEROCUB3
Catalog number: 35005
Epoch time: 10126.15548826
Element set: 302
Inclination: 040.4684 deg
RA of node: 099.2052 deg
Eccentricity: 0.0016504
Arg of perigee: 077.6131 deg
Mean anomaly: 282.6341 deg
Mean motion: 15.49079268 rev/day
Decay rate: 5.4107e-04 rev/day^2
Epoch rev: 5422
Checksum: 278
Satellite: DRAGNSAT
Catalog number: 35690
Epoch time: 10076.22711312
Element set: 316
Inclination: 051.6170 deg
RA of node: 315.4586 deg
Eccentricity: 0.0004999
Arg of perigee: 310.9891 deg
Mean anomaly: 057.3269 deg
Mean motion: 16.42150010 rev/day
Decay rate: 5.715194e-02 rev/day^2
Epoch rev: 3656
Checksum: 289
Satellite: POLLUX
Catalog number: 35693
Epoch time: 10087.99866888
Element set: 352
Inclination: 051.6099 deg
RA of node: 254.5746 deg
Eccentricity: 0.0006270
Arg of perigee: 294.4866 deg
Mean anomaly: 097.5899 deg
Mean motion: 16.52338462 rev/day
Decay rate: 2.3496735e-01 rev/day^2
Epoch rev: 3839
Checksum: 384
Satellite: CASTOR
Catalog number: 35694
Epoch time: 10126.65924850
Element set: 351
Inclination: 051.6365 deg
RA of node: 061.5427 deg
Eccentricity: 0.0004772
Arg of perigee: 064.5909 deg
Mean anomaly: 295.5591 deg
Mean motion: 15.96527898 rev/day
Decay rate: 7.7551e-04 rev/day^2
Epoch rev: 4441
Checksum: 330
Satellite: METEOR-M
Catalog number: 35865
Epoch time: 10126.68536990
Element set: 268
Inclination: 098.7608 deg
RA of node: 180.7736 deg
Eccentricity: 0.0003094
Arg of perigee: 109.9901 deg
Mean anomaly: 250.1581 deg
Mean motion: 14.21830012 rev/day
Decay rate: 1.76e-06 rev/day^2
Epoch rev: 3282
Checksum: 297
Satellite: RS-38
Catalog number: 35869
Epoch time: 10126.80203282
Element set: 275
Inclination: 098.7605 deg
RA of node: 180.9181 deg
Eccentricity: 0.0005369
Arg of perigee: 118.7914 deg
Mean anomaly: 241.3772 deg
Mean motion: 14.21980863 rev/day
Decay rate: 1.77e-06 rev/day^2
Epoch rev: 3284
Checksum: 318
/EX
More information about the Keps
mailing list